Theta_e
318 320 320 320 320 319 319 319 319 320 320 319 320 321 321 321 321 321 321 320 321 320 320 320 320 321 322 323 324 326 328 319 348 350 350 351 350 350 350 350 349 350 350 347
320 320 320 320 320 319 319 318 319 320 320 320 321 321 321 322 321 321 321 321 321 320 320 320 320 320 320 322 323 325 326 329 320 338 345 347 347 347 347 348 348 349 349 347
321 321 320 319 319 319 319 319 320 320 320 321 321 321 321 321 321 320 320 320 320 320 320 320 320 320 321 321 322 323 325 327 332 323 336 345 347 346 344 343 346 349 349 348
321 320 320 319 318 318 319 319 319 318 319 320 321 321 323 323 323 323 321 321 321 320 320 320 321 321 321 321 321 321 323 326 324 322 330 332 340 342 340 339 340 343 348 350
320 319 318 318 319 319 318 319 319 319 320 321 321 322 323 324 324 324 323 322 321 321 322 322 321 322 322 321 321 322 323 325 329 329 330 331 332 333 335 338 339 339 344 347
318 318 318 319 320 319 319 319 320 321 322 323 323 324 324 324 325 325 324 323 323 322 322 321 321 321 321 321 322 323 324 327 330 330 331 329 325 334 335 335 337 338 342 344
318 319 319 319 319 319 320 321 322 323 324 324 324 325 326 326 324 324 324 323 323 322 321 320 320 320 320 321 322 323 324 326 328 329 331 331 332 331 330 332 334 334 338 341
321 321 320 320 320 320 321 321 321 324 326 326 325 326 327 326 324 323 321 322 322 321 320 320 319 319 319 320 320 321 322 322 324 327 329 331 331 330 330 330 332 335 332 335
321 322 321 320 320 319 321 322 321 325 326 327 324 325 325 325 325 323 322 321 321 321 320 319 318 318 318 319 319 320 320 322 321 323 327 329 332 332 330 326 328 333 332 333
320 323 321 322 321 322 321 320 322 324 332 329 325 326 326 326 325 324 323 322 321 319 319 319 318 318 318 318 318 319 319 320 320 321 323 325 328 331 333 333 332 331 337 337
319 321 321 320 321 321 321 322 322 322 324 329 329 325 323 324 324 324 323 321 319 318 318 318 318 317 317 317 317 317 318 318 318 320 321 322 325 328 330 333 334 336 338 338
318 322 323 321 320 320 321 321 321 327 327 326 327 329 323 323 323 322 321 319 318 317 317 316 315 315 315 316 317 317 317 318 318 318 318 320 324 326 327 328 331 334 334 335
319 321 324 320 321 321 320 321 321 321 324 326 328 325 321 321 321 319 319 317 316 316 316 316 315 315 314 315 316 316 315 315 317 317 318 318 319 323 327 327 326 328 329 331
315 318 318 322 320 320 321 320 319 320 325 323 323 321 320 319 321 320 317 315 316 316 316 315 315 315 314 314 314 314 314 313 313 314 315 316 318 318 319 323 325 326 325 327
315 318 317 316 316 316 317 317 317 317 318 321 321 320 318 319 319 316 316 316 315 316 315 314 314 313 313 313 312 312 312 312 312 312 313 314 315 317 317 319 318 320 320 324
316 317 317 317 316 315 316 316 315 316 316 316 317 318 317 316 316 316 316 316 316 315 314 313 313 313 312 312 311 311 311 311 311 311 312 312 312 314 316 316 317 316 316 317
315 316 318 319 315 316 316 315 317 315 315 316 316 316 315 316 316 316 315 315 314 313 313 313 313 312 312 311 311 311 310 311 311 311 311 311 311 311 313 315 315 318 317 315
313 314 317 317 315 319 316 317 316 316 316 316 316 316 316 316 315 314 313 312 312 312 312 312 311 311 310 310 308 309 309 309 308 308 308 310 310 310 311 313 314 315 317 319
314 314 316 318 317 317 316 316 317 317 317 316 317 316 315 313 312 312 312 312 311 311 310 309 309 308 308 308 307 306 307 307 306 307 307 307 308 308 311 311 312 313 314 317
315 314 316 316 318 318 320 316 315 315 317 316 314 315 314 313 314 314 310 309 309 308 306 307 307 306 306 306 306 306 306 305 304 305 305 307 307 308 309 310 311 312 312 314
317 316 315 317 318 317 317 316 314 317 318 314 313 313 312 313 311 309 308 307 306 307 307 306 305 305 305 305 305 305 305 304 304 304 305 306 306 306 306 308 309 310 311 312
317 316 317 316 319 318 315 315 316 315 313 312 312 311 310 309 308 308 307 306 306 306 305 306 305 306 305 305 304 305 304 304 303 303 304 304 305 305 306 306 306 308 310 311
315 315 318 316 318 315 314 315 312 311 311 311 311 309 308 308 307 307 306 306 305 305 304 303 303 302 302 302 303 303 303 302 302 303 303 303 303 305 305 305 305 305 307 309
313 313 314 313 314 313 313 312 311 310 310 310 309 308 308 307 306 305 304 304 304 304 302 300 300 299 300 300 300 300 299 299 300 301 302 302 302 303 304 304 304 304 305 307
310 310 311 311 311 312 312 311 310 310 309 309 307 307 306 305 304 305 304 304 303 301 300 298 297 297 297 297 297 297 298 298 298 299 300 300 300 300 301 302 303 304 304 306
310 311 313 314 312 312 311 310 310 309 308 307 307 306 305 305 304 304 303 302 301 300 298 296 295 295 295 294 295 295 296 296 296 297 298 299 299 299 300 301 302 303 304 305
Wind_Speed
17 13 15 17 17 18 17 13 16 12 7 8 12 16 17 17 19 17 20 21 21 20 18 18 18 15 15 12 9 10 14 21 20 21 23 23 25 25 25 26 28 29 30 30
15 16 17 16 13 11 13 16 18 17 14 13 16 20 17 17 16 22 22 22 21 22 20 19 18 17 17 15 15 14 13 14 15 22 25 26 26 26 26 24 27 29 29 30
18 12 5 10 15 14 17 17 17 17 14 10 16 19 19 18 27 28 24 24 23 22 22 20 17 16 13 13 16 17 17 16 16 19 23 26 27 27 26 28 27 28 32 35
16 16 16 13 13 12 17 17 17 15 15 15 16 16 16 12 14 13 17 20 21 24 23 18 10 9 13 16 16 17 16 16 20 22 19 26 30 31 31 32 31 30 31 32
16 15 12 17 20 17 18 15 12 15 16 18 19 13 15 17 16 16 13 14 16 10 1 4 7 10 13 16 17 17 18 17 16 18 21 22 25 30 33 33 32 32 31 33
16 14 6 12 9 5 13 10 14 16 16 18 20 19 17 16 17 11 10 17 7 4 1 6 9 11 14 14 14 15 14 16 16 16 18 23 28 26 26 29 32 34 35 37
17 20 19 17 15 14 13 13 12 15 15 18 20 20 15 7 9 10 13 10 10 4 3 5 8 11 11 11 9 9 10 12 14 16 17 18 22 25 29 30 31 33 34 41
14 14 11 11 16 16 19 18 13 22 18 18 20 18 14 16 4 6 6 4 1 4 4 7 10 11 13 12 13 13 14 13 13 15 16 18 19 21 24 27 30 34 38 48
10 17 8 12 13 12 16 16 15 14 19 18 18 26 22 24 18 13 14 14 8 5 8 12 13 13 14 15 15 16 15 16 16 17 17 17 18 22 26 31 33 32 39 43
2 11 13 15 18 19 16 12 8 8 6 16 15 16 7 12 11 5 7 8 7 8 13 15 15 16 15 15 16 15 15 16 17 17 16 17 18 18 21 25 27 35 34 40
8 12 16 16 19 20 15 12 17 16 14 10 15 12 7 6 4 6 5 5 8 12 15 18 19 21 21 20 18 17 15 15 16 15 15 15 17 18 18 21 23 26 31 37
5 4 13 21 20 19 15 19 15 5 10 13 11 8 11 6 11 7 8 9 14 17 20 21 22 22 21 19 17 17 16 17 17 17 16 15 14 15 15 16 17 20 25 26
3 4 8 13 15 14 14 13 14 13 13 19 14 12 4 6 11 10 14 21 20 16 16 15 17 17 18 19 17 17 19 20 20 19 18 17 16 14 14 14 14 14 14 18
4 13 14 14 19 5 8 16 17 13 9 15 19 24 22 10 12 14 25 21 17 17 17 19 21 21 20 20 21 21 22 23 23 22 21 20 19 17 16 19 16 10 13 15
4 9 16 20 21 21 23 21 20 20 21 20 21 23 21 18 21 19 14 18 18 19 20 20 24 25 26 25 25 26 26 26 25 25 25 24 22 21 19 19 25 28 23 15
9 7 15 20 18 20 22 22 22 23 22 19 23 25 22 27 7 15 14 18 22 22 23 26 30 24 28 27 28 30 30 29 29 29 28 26 26 25 23 20 22 26 46 37
5 3 7 13 12 13 14 17 18 17 14 16 16 14 7 9 10 14 16 20 24 27 31 31 28 29 31 32 31 33 33 30 30 31 32 31 29 29 27 24 21 22 23 32
8 14 4 9 11 11 9 3 5 6 11 11 12 12 12 12 17 24 27 30 31 28 30 33 35 37 36 33 32 33 32 31 30 32 35 34 33 32 30 28 26 24 25 27
19 11 3 5 9 15 21 6 2 5 10 11 11 11 16 23 28 28 24 24 30 34 37 38 38 38 38 36 35 39 37 35 38 39 38 37 39 38 34 32 30 28 28 29
7 9 5 9 7 8 6 1 6 7 9 10 13 13 17 25 16 16 34 36 37 37 39 38 38 39 39 38 40 37 36 36 39 40 41 36 34 33 35 33 30 31 30 31
4 4 8 11 8 7 5 2 5 7 5 15 14 21 25 18 20 36 36 38 37 37 37 38 39 39 39 35 37 38 36 38 40 39 36 33 34 36 37 33 34 36 33 31
7 4 5 7 5 8 11 5 5 9 17 19 23 26 28 32 34 35 38 38 39 39 41 40 42 39 42 37 38 42 42 40 43 38 34 35 34 34 32 33 37 30 35 35
4 3 2 4 4 4 6 12 9 9 15 21 26 29 31 34 35 37 38 38 39 37 39 40 42 43 43 45 36 37 40 38 37 33 35 35 36 33 33 37 34 35 32 33
5 6 4 7 5 6 16 6 7 14 20 25 26 29 31 34 36 38 39 40 39 37 42 45 40 49 38 39 37 37 41 37 34 36 36 34 35 37 35 35 35 35 37 35
10 8 13 16 15 13 6 10 16 21 23 26 29 28 30 31 36 38 40 41 38 46 45 41 44 42 44 37 38 36 34 34 34 36 35 39 39 36 39 42 40 39 44 39
6 8 6 7 6 8 13 18 20 22 26 25 28 32 32 33 36 38 40 43 41 44 47 48 46 43 43 43 40 37 34 32 33 36 38 38 38 40 37 38 40 43 45 39
Wind_Direction
205 228 227 232 223 260 292 284 282 276 230 252 267 271 268 257 249 248 247 239 243 246 249 248 248 246 258 271 279 269 258 245 228 228 229 234 229 231 230 227 227 227 234 228
235 230 252 251 257 264 260 258 258 261 265 263 267 264 265 261 254 249 255 254 245 246 247 249 248 247 251 256 271 272 265 268 246 239 238 235 238 238 237 236 233 231 233 230
232 249 183 274 252 244 249 255 265 271 276 233 257 266 257 252 250 252 249 256 256 255 257 258 260 257 258 259 270 271 274 263 260 248 239 242 238 238 237 236 237 237 232 230
246 242 257 229 245 251 256 246 251 261 261 260 252 271 273 266 265 255 237 233 251 253 249 248 250 277 276 272 271 267 273 270 266 265 250 240 240 240 240 241 242 238 240 230
248 229 241 251 257 252 255 279 279 270 263 270 259 260 261 248 241 236 230 263 254 247 33 302 288 286 283 282 276 271 269 269 269 256 245 249 251 247 248 246 245 243 238 244
257 268 259 280 298 269 286 256 253 251 254 254 254 255 262 261 261 257 228 220 183 139 291 285 292 287 288 295 292 281 277 276 281 276 264 261 246 242 246 247 246 245 239 234
256 248 247 240 255 260 232 253 267 259 247 256 251 246 258 288 299 279 290 273 126 145 287 303 295 297 304 294 305 309 297 286 284 281 275 269 263 254 249 245 249 250 247 240
284 259 253 294 245 263 255 245 251 280 280 288 303 280 270 274 224 271 247 252 300 219 286 280 282 291 294 299 300 302 303 303 297 290 283 277 270 265 259 257 255 250 251 252
301 271 284 281 280 287 281 277 291 319 286 273 272 274 268 262 242 190 209 232 257 290 286 284 289 293 296 298 299 303 302 301 299 294 290 286 280 272 262 254 246 252 251 249
272 277 272 285 301 273 262 268 275 252 270 265 267 274 279 344 320 22 161 224 224 279 292 296 295 292 294 294 295 295 302 304 299 294 288 285 283 280 273 268 264 245 247 249
260 255 268 267 253 257 266 253 262 260 266 266 279 272 352 314 359 306 260 256 272 273 285 291 293 296 296 292 291 293 296 303 300 298 299 292 283 282 279 270 261 252 246 243
265 273 274 270 278 271 249 267 249 239 259 257 284 275 289 85 248 221 302 303 282 289 302 296 298 297 293 291 294 296 297 297 293 297 301 306 292 281 276 276 265 260 247 235
352 247 289 276 236 236 252 245 257 263 273 262 265 259 108 331 300 256 291 286 290 295 284 287 291 293 293 292 292 291 291 294 294 293 294 297 300 294 273 262 268 255 237 232
326 271 263 270 293 252 275 280 276 261 267 273 260 278 281 308 278 270 267 297 286 287 286 285 288 290 293 292 293 289 290 292 291 289 289 288 285 287 284 244 243 212 244 241
257 262 266 272 273 280 281 278 274 266 261 259 272 282 289 280 286 292 296 287 284 290 289 297 294 293 292 291 290 290 289 288 288 286 284 282 280 278 276 278 262 244 269 258
175 261 267 274 265 257 262 264 258 254 256 251 253 256 254 260 334 316 319 310 299 288 296 292 290 289 290 287 288 291 289 286 284 283 278 280 277 275 271 269 276 250 240 272
237 257 272 263 284 290 266 260 273 250 261 268 275 296 338 289 325 316 294 288 306 300 294 292 296 295 293 289 287 287 284 284 283 280 276 276 275 271 266 260 254 258 249 244
232 262 274 284 299 259 300 160 312 295 288 300 308 330 336 327 327 316 312 301 295 303 306 303 300 297 293 289 293 290 284 285 283 279 274 272 271 269 263 257 250 243 243 243
212 229 250 255 259 285 275 309 212 348 303 335 340 352 343 331 311 296 297 320 315 308 303 298 294 295 294 291 287 285 285 283 283 277 273 271 266 266 262 257 253 246 242 243
174 209 229 260 258 271 113 261 1 318 269 34 1 325 313 317 305 299 323 314 307 302 299 297 295 294 290 287 286 284 283 280 280 275 277 270 265 263 260 258 256 251 246 244
186 179 224 242 252 279 49 54 304 260 358 309 309 314 313 310 304 306 308 304 301 305 307 303 300 292 294 290 286 280 281 278 281 280 273 266 264 263 261 261 255 253 247 242
199 227 213 238 246 244 358 331 335 343 329 325 316 314 313 307 306 307 306 306 307 307 307 303 302 294 293 286 290 284 280 280 283 276 267 269 265 260 257 256 254 255 245 243
279 233 335 255 303 291 295 263 315 338 317 311 313 314 312 307 308 305 305 309 306 306 309 309 303 299 292 290 287 279 280 284 279 272 270 265 262 257 255 253 253 248 246 242
291 188 236 290 237 327 289 330 351 327 309 314 312 312 312 310 310 307 306 306 307 306 307 307 301 304 290 293 292 283 283 282 279 274 268 263 259 255 255 252 246 244 241 240
286 287 282 273 270 335 331 340 327 315 313 317 313 314 313 312 308 308 309 310 311 310 309 308 304 301 297 296 293 289 287 279 273 269 266 266 266 260 256 251 247 242 241 236
328 284 282 290 323 311 309 315 312 318 319 317 316 315 316 313 311 310 311 311 307 310 311 311 311 306 304 303 298 294 290 283 276 268 265 262 259 261 255 251 249 246 241 238